| time (UTC) | temp F | wind direction | speed knots | gust knots | rain 1hr in | rain 24hr in | rain mn in | humidity % | barometer mb |
| 20260904232404 | 85 | 208 | 0.0 | 0.0 | 0.00 | 0.00 | 0.00 | ||
| 20260904231905 | 85 | 32 | 0.0 | 0.0 | 0.00 | 0.00 | 0.00 | ||
| 20260904231403 | 85 | 271 | 0.0 | 0.0 | 0.00 | 0.00 | 0.00 | ||
| 20260904230905 | 86 | 6 | 0.9 | 1.7 | 0.00 | 0.00 | 0.00 | ||
| 20260904230402 | 86 | 252 | 0.9 | 0.0 | 0.00 | 0.00 | 0.00 | ||
| 20260904225401 | 86 | 316 | 1.7 | 2.6 | 0.00 | 0.00 | 0.00 | ||
| 20260904224902 | 87 | 45 | 0.9 | 0.0 | 0.00 | 0.00 | 0.00 | ||
| 20260904224359 | 87 | 304 | 0.9 | 0.9 | 0.00 | 0.00 | 0.00 | ||
| 20260904223900 | 87 | 221 | 0.9 | 0.0 | 0.00 | 0.00 | 0.00 | ||
| 20260904222859 | 87 | 49 | 1.7 | 0.9 | 0.00 | 0.00 | 0.00 | ||
| 20260904222355 | 87 | 143 | 2.6 | 0.9 | 0.00 | 0.00 | 0.00 | ||
| 20260904221856 | 87 | 150 | 2.6 | 6.1 | 0.00 | 0.00 | 0.00 | ||
| 20260904221354 | 87 | 7 | 0.9 | 0.0 | 0.00 | 0.00 | 0.00 | ||
| 20260904220855 | 88 | 46 | 2.6 | 1.7 | 0.00 | 0.00 | 0.00 | ||
| 20260904220351 | 88 | 160 | 5.2 | 2.6 | 0.00 | 0.00 | 0.00 | ||
| 20260904215852 | 88 | 108 | 4.3 | 5.2 | 0.00 | 0.00 | 0.00 | ||
| 20260904215351 | 88 | 146 | 3.5 | 3.5 | 0.00 | 0.00 | 0.00 | ||
| 20260904214343 | 89 | 142 | 1.7 | 2.6 | 0.00 | 0.00 | 0.00 | ||
| 20260904213842 | 88 | 129 | 3.5 | 4.3 | 0.00 | 0.00 | 0.00 | ||
| 20260904213340 | 88 | 153 | 3.5 | 4.3 | 0.00 | 0.00 | 0.00 | ||
| 20260904212338 | 89 | 15 | 0.9 | 0.0 | 0.00 | 0.00 | 0.00 | ||
| 20260904210838 | 89 | 110 | 3.5 | 1.7 | 0.00 | 0.00 | 0.00 | ||
| 20260904205837 | 90 | 122 | 2.6 | 3.5 | 0.00 | 0.00 | 0.00 | ||
| 20260904205335 | 90 | 86 | 1.7 | 2.6 | 0.00 | 0.00 | 0.00 | ||
| 20260904204836 | 89 | 125 | 4.3 | 3.5 | 0.00 | 0.00 | 0.00 | ||
| 20260904204334 | 90 | 132 | 3.5 | 3.5 | 0.00 | 0.00 | 0.00 | ||
| 20260904203835 | 90 | 159 | 5.2 | 2.6 | 0.00 | 0.00 | 0.00 | ||
| 20260904202834 | 89 | 128 | 3.5 | 1.7 | 0.00 | 0.00 | 0.00 | ||
| 20260904201833 | 89 | 131 | 0.9 | 5.2 | 0.00 | 0.00 | 0.00 | ||
| 20260904201330 | 91 | 135 | 4.3 | 7.8 | 0.00 | 0.00 | 0.00 | ||
| 20260904200830 | 90 | 104 | 3.5 | 5.2 | 0.00 | 0.00 | 0.00 | ||
| 20260904195830 | 89 | 162 | 6.1 | 6.1 | 0.00 | 0.00 | 0.00 | ||
| 20260904195325 | 90 | 97 | 6.1 | 2.6 | 0.00 | 0.00 | 0.00 | ||
| 20260904194826 | 90 | 150 | 6.1 | 4.3 | 0.00 | 0.00 | 0.00 | ||
| 20260904193825 | 91 | 134 | 2.6 | 3.5 | 0.00 | 0.00 | 0.00 | ||
| 20260904192824 | 90 | 76 | 4.3 | 0.9 | 0.00 | 0.00 | 0.00 | ||
| 20260904192320 | 91 | 238 | 0.0 | 3.5 | 0.00 | 0.00 | 0.00 | ||
| 20260904191820 | 91 | 195 | 1.7 | 1.7 | 0.00 | 0.00 | 0.00 | ||
| 20260904191319 | 90 | 145 | 4.3 | 3.5 | 0.00 | 0.00 | 0.00 | ||
| 20260904185818 | 89 | 153 | 3.5 | 4.3 | 0.00 | 0.00 | 0.00 | ||
| 20260904185317 | 90 | 152 | 6.1 | 5.2 | 0.00 | 0.00 | 0.00 | ||
| 20260904184818 | 90 | 98 | 5.2 | 7.8 | 0.00 | 0.00 | 0.00 | ||
| 20260904184316 | 91 | 146 | 3.5 | 4.3 | 0.00 | 0.00 | 0.00 | ||
| 20260904183817 | 91 | 145 | 3.5 | 5.2 | 0.00 | 0.00 | 0.00 | ||
| 20260904183315 | 91 | 41 | 0.9 | 0.0 | 0.00 | 0.00 | 0.00 | ||
| 20260904182816 | 91 | 155 | 3.5 | 4.3 | 0.00 | 0.00 | 0.00 | ||
| 20260904182314 | 90 | 138 | 0.9 | 3.5 | 0.00 | 0.00 | 0.00 | ||
| 20260904181815 | 91 | 7 | 0.9 | 0.0 | 0.00 | 0.00 | 0.00 | ||
| 20260904181312 | 90 | 152 | 2.6 | 0.9 | 0.00 | 0.00 | 0.00 | ||
| 20260904180813 | 90 | 59 | 0.9 | 2.6 | 0.00 | 0.00 | 0.00 | ||
| 20260904180311 | 90 | 138 | 4.3 | 6.1 | 0.00 | 0.00 | 0.00 | ||
| 20260904175311 | 89 | 101 | 3.5 | 4.3 | 0.00 | 0.00 | 0.00 | ||
| 20260904174811 | 89 | 128 | 7.0 | 8.7 | 0.00 | 0.00 | 0.00 | ||
| 20260904173811 | 89 | 128 | 5.2 | 6.1 | 0.00 | 0.00 | 0.00 | ||
| 20260904173309 | 89 | 143 | 5.2 | 5.2 | 0.00 | 0.00 | 0.00 | ||
| 20260904172308 | 88 | 108 | 3.5 | 3.5 | 0.00 | 0.00 | 0.00 | ||
| 20260904171809 | 89 | 131 | 3.5 | 3.5 | 0.00 | 0.00 | 0.00 | ||
| 20260904171305 | 89 | 128 | 0.9 | 1.7 | 0.00 | 0.00 | 0.00 | ||
| 20260904170806 | 88 | 129 | 2.6 | 1.7 | 0.00 | 0.00 | 0.00 | ||
| 20260904170304 | 89 | 159 | 5.2 | 4.3 | 0.00 | 0.00 | 0.00 | ||
| 20260904165805 | 89 | 136 | 4.3 | 2.6 | 0.00 | 0.00 | 0.00 | ||
| 20260904165305 | 89 | 139 | 3.5 | 3.5 | 0.00 | 0.00 | 0.00 | ||
| 20260904164805 | 89 | 110 | 5.2 | 2.6 | 0.00 | 0.00 | 0.00 | ||
| 20260904164302 | 90 | 117 | 6.1 | 5.2 | 0.00 | 0.00 | 0.00 | ||
| 20260904163300 | 90 | 120 | 1.7 | 1.7 | 0.00 | 0.00 | 0.00 | ||
| 20260904162257 | 90 | 217 | 0.0 | 0.9 | 0.00 | 0.00 | 0.00 | ||
| 20260904161756 | 90 | 184 | 0.9 | 0.0 | 0.00 | 0.00 | 0.00 | ||
| 20260904161255 | 91 | 190 | 0.0 | 0.9 | 0.00 | 0.00 | 0.00 | ||
| 20260904160754 | 92 | 142 | 0.0 | 0.0 | 0.00 | 0.00 | 0.00 | ||
| 20260904160252 | 91 | 215 | 0.9 | 1.7 | 0.00 | 0.00 | 0.00 | ||
| 20260904155255 | 85 | 148 | 3.5 | 3.5 | 0.00 | 0.00 | 0.00 | ||
| 20260904155251 | 91 | 356 | 1.7 | 1.7 | 0.00 | 0.00 | 0.00 | ||
| 20260904154752 | 91 | 307 | 1.7 | 4.3 | 0.00 | 0.00 | 0.00 | ||
| 20260904154250 | 92 | 263 | 0.9 | 1.7 | 0.00 | 0.00 | 0.00 | ||
| 20260904153250 | 91 | 290 | 0.0 | 1.7 | 0.00 | 0.00 | 0.00 | ||
| 20260904152751 | 91 | 293 | 0.0 | 0.0 | 0.00 | 0.00 | 0.00 | ||
| 20260904151750 | 92 | 297 | 0.9 | 1.7 | 0.00 | 0.00 | 0.00 | ||
| 20260904151248 | 91 | 293 | 1.7 | 0.0 | 0.00 | 0.00 | 0.00 | ||
| 20260904150749 | 91 | 323 | 1.7 | 0.9 | 0.00 | 0.00 | 0.00 | ||
| 20260904150247 | 91 | 267 | 0.0 | 0.9 | 0.00 | 0.00 | 0.00 | ||
| 20260904145748 | 90 | 338 | 1.7 | 2.6 | 0.00 | 0.00 | 0.00 | ||
| 20260904145247 | 89 | 307 | 0.9 | 0.0 | 0.00 | 0.00 | 0.00 | ||
| 20260904144748 | 88 | 307 | 0.0 | 1.7 | 0.00 | 0.00 | 0.00 | ||
| 20260904143747 | 87 | 134 | 4.3 | 1.7 | 0.00 | 0.00 | 0.00 | ||
| 20260904143244 | 86 | 125 | 1.7 | 5.2 | 0.00 | 0.00 | 0.00 | ||
| 20260904142743 | 86 | 131 | 4.3 | 4.3 | 0.00 | 0.00 | 0.00 | ||
| 20260904142242 | 86 | 134 | 2.6 | 2.6 | 0.00 | 0.00 | 0.00 | ||
| 20260904141241 | 86 | 146 | 2.6 | 2.6 | 0.00 | 0.00 | 0.00 | ||
| 20260904140742 | 85 | 148 | 3.5 | 3.5 | 0.00 | 0.00 | 0.00 | ||
| 20260904140240 | 84 | 110 | 4.3 | 4.3 | 0.00 | 0.00 | 0.00 | ||
| 20260904135741 | 84 | 297 | 1.7 | 0.9 | 0.00 | 0.00 | 0.00 | ||
| 20260904135440 | 84 | 131 | 0.9 | 3.5 | 0.00 | 0.00 | 0.00 | ||
| 20260904135238 | 84 | 44 | 0.9 | 0.0 | 0.00 | 0.00 | 0.00 | ||
| 20260904134739 | 84 | 131 | 0.9 | 3.5 | 0.00 | 0.00 | 0.00 | ||
| 20260904134237 | 83 | 231 | 1.7 | 0.9 | 0.00 | 0.00 | 0.00 | ||
| 20260904133738 | 83 | 113 | 0.9 | 1.7 | 0.00 | 0.00 | 0.00 | ||
| 20260904133235 | 83 | 141 | 1.7 | 1.7 | 0.00 | 0.00 | 0.00 | ||
| 20260904132737 | 83 | 267 | 0.0 | 0.0 | 0.00 | 0.00 | 0.00 | ||
| 20260904132235 | 82 | 267 | 0.0 | 0.0 | 0.00 | 0.00 | 0.00 | ||
| 20260904130735 | 82 | 103 | 0.0 | 0.0 | 0.00 | 0.00 | 0.00 | ||
| 20260904130232 | 81 | 103 | 0.0 | 0.0 | 0.00 | 0.00 | 0.00 | ||
| 20260904125232 | 81 | 103 | 0.0 | 0.0 | 0.00 | 0.00 | 0.00 | ||
| 20260904124231 | 81 | 103 | 0.0 | 0.0 | 0.00 | 0.00 | 0.00 | ||
| 20260904123227 | 80 | 103 | 0.0 | 0.0 | 0.00 | 0.00 | 0.00 | ||
| 20260904122228 | 80 | 103 | 0.0 | 0.0 | 0.00 | 0.00 | 0.00 | ||
| 20260904121727 | 80 | 103 | 0.0 | 0.0 | 0.00 | 0.00 | 0.00 | ||
| 20260904121223 | 80 | 103 | 0.0 | 0.0 | 0.00 | 0.00 | 0.00 | ||
| 20260904120724 | 78 | 103 | 0.0 | 0.0 | 0.00 | 0.00 | 0.00 | ||
| 20260904114722 | 78 | 103 | 0.0 | 0.0 | 0.00 | 0.00 | 0.00 | ||
| 20260904113720 | 77 | 103 | 0.0 | 0.0 | 0.00 | 0.00 | 0.00 | ||
| 20260904112717 | 77 | 103 | 0.0 | 0.0 | 0.00 | 0.00 | 0.00 | ||
| 20260904112216 | 77 | 103 | 0.0 | 0.0 | 0.00 | 0.00 | 0.00 | ||
| 20260904111715 | 77 | 103 | 0.0 | 0.0 | 0.00 | 0.00 | 0.00 | ||
| 20260904111214 | 76 | 103 | 0.0 | 0.0 | 0.00 | 0.00 | 0.00 | ||
| 20260904110212 | 76 | 103 | 0.0 | 0.0 | 0.00 | 0.00 | 0.00 | ||
| 20260904104710 | 76 | 103 | 0.0 | 0.0 | 0.00 | 0.00 | 0.00 | ||
| 20260904104206 | 76 | 103 | 0.0 | 0.0 | 0.00 | 0.00 | 0.00 | ||
| 20260904102204 | 76 | 103 | 0.0 | 0.0 | 0.00 | 0.00 | 0.00 | ||
| 20260904101737 | 76 | 103 | 0.0 | 0.0 | 0.00 | 0.00 | 0.00 | ||
| 20260904101705 | 76 | 103 | 0.0 | 0.0 | 0.00 | 0.00 | 0.00 | ||
| 20260904100704 | 76 | 103 | 0.0 | 0.0 | 0.00 | 0.00 | 0.00 | ||
| 20260904100201 | 76 | 103 | 0.0 | 0.0 | 0.00 | 0.00 | 0.00 | ||
| 20260904095159 | 76 | 103 | 0.0 | 0.0 | 0.00 | 0.00 | 0.00 | ||
| 20260904094700 | 76 | 103 | 0.0 | 0.0 | 0.00 | 0.00 | 0.00 | ||
| 20260904094158 | 77 | 103 | 0.0 | 0.0 | 0.00 | 0.00 | 0.00 | ||
| 20260904093659 | 76 | 103 | 0.0 | 0.0 | 0.00 | 0.00 | 0.00 | ||
| 20260904092658 | 76 | 103 | 0.0 | 0.0 | 0.00 | 0.00 | 0.00 | ||
| 20260904091657 | 77 | 103 | 0.0 | 0.0 | 0.00 | 0.00 | 0.00 | ||
| 20260904090153 | 76 | 103 | 0.0 | 0.0 | 0.00 | 0.00 | 0.00 | ||
| 20260904085653 | 76 | 103 | 0.0 | 0.0 | 0.00 | 0.00 | 0.00 | ||
| 20260904085151 | 76 | 103 | 0.0 | 0.0 | 0.00 | 0.00 | 0.00 | ||
| 20260904084149 | 77 | 103 | 0.0 | 0.0 | 0.00 | 0.00 | 0.00 | ||
| 20260904082650 | 76 | 103 | 0.0 | 0.0 | 0.00 | 0.00 | 0.00 | ||
| 20260904082147 | 77 | 103 | 0.0 | 0.0 | 0.00 | 0.00 | 0.00 | ||
| 20260904081648 | 77 | 103 | 0.0 | 0.0 | 0.00 | 0.00 | 0.00 | ||
| 20260904081238 | 77 | 103 | 0.0 | 0.0 | 0.00 | 0.00 | 0.00 | ||
| 20260904081144 | 77 | 103 | 0.0 | 0.0 | 0.00 | 0.00 | 0.00 | ||
| 20260904080645 | 77 | 103 | 0.0 | 0.0 | 0.00 | 0.00 | 0.00 | ||
| 20260904075139 | 77 | 103 | 0.0 | 0.0 | 0.00 | 0.00 | 0.00 | ||
| 20260904074640 | 77 | 103 | 0.0 | 0.0 | 0.00 | 0.00 | 0.00 | ||
| 20260904074137 | 77 | 103 | 0.0 | 0.0 | 0.00 | 0.00 | 0.00 | ||
| 20260904073638 | 77 | 103 | 0.0 | 0.0 | 0.00 | 0.00 | 0.00 | ||
| 20260904073134 | 77 | 103 | 0.0 | 0.0 | 0.00 | 0.00 | 0.00 | ||
| 20260904072133 | 77 | 103 | 0.0 | 0.0 | 0.00 | 0.00 | 0.00 | ||
| 20260904071634 | 77 | 103 | 0.0 | 0.0 | 0.00 | 0.00 | 0.00 | ||
| 20260904071132 | 77 | 103 | 0.0 | 0.0 | 0.00 | 0.00 | 0.00 | ||
| 20260904070633 | 77 | 103 | 0.0 | 0.0 | 0.00 | 0.00 | 0.00 | ||
| 20260904070131 | 77 | 103 | 0.0 | 0.0 | 0.00 | 0.00 | 0.00 | ||
| 20260904065632 | 77 | 103 | 0.0 | 0.0 | 0.00 | 0.00 | 0.00 | ||
| 20260904065128 | 76 | 103 | 0.0 | 0.0 | 0.00 | 0.00 | 0.00 | ||
| 20260904064629 | 77 | 103 | 0.0 | 0.0 | 0.00 | 0.00 | 0.00 | ||
| 20260904064126 | 77 | 103 | 0.0 | 0.0 | 0.00 | 0.00 | 0.00 | ||
| 20260904063627 | 77 | 103 | 0.0 | 0.0 | 0.00 | 0.00 | 0.00 | ||
| 20260904062625 | 78 | 103 | 0.0 | 0.0 | 0.00 | 0.00 | 0.00 | ||
| 20260904061123 | 78 | 103 | 0.0 | 0.0 | 0.00 | 0.00 | 0.00 | ||
| 20260904060623 | 78 | 103 | 0.0 | 0.0 | 0.00 | 0.00 | 0.00 | ||
| 20260904055621 | 78 | 103 | 0.0 | 0.0 | 0.00 | 0.00 | 0.00 | ||
| 20260904055119 | 78 | 103 | 0.0 | 0.0 | 0.00 | 0.00 | 0.00 | ||
| 20260904054620 | 78 | 103 | 0.0 | 0.0 | 0.00 | 0.00 | 0.00 | ||
| 20260904053618 | 78 | 103 | 0.0 | 0.0 | 0.00 | 0.00 | 0.00 | ||
| 20260904053114 | 78 | 103 | 0.0 | 0.0 | 0.00 | 0.00 | 0.00 | ||
| 20260904052615 | 78 | 103 | 0.0 | 0.0 | 0.00 | 0.00 | 0.00 | ||
| 20260904052113 | 78 | 103 | 0.0 | 0.0 | 0.00 | 0.00 | 0.00 | ||
| 20260904051613 | 78 | 103 | 0.0 | 0.0 | 0.00 | 0.00 | 0.00 | ||
| 20260904051110 | 79 | 103 | 0.0 | 0.0 | 0.00 | 0.00 | 0.00 | ||
| 20260904050611 | 77 | 103 | 0.0 | 0.0 | 0.00 | 0.00 | 0.00 | ||
| 20260904050109 | 78 | 103 | 0.0 | 0.0 | 0.00 | 0.00 | 0.00 | ||
| 20260904045610 | 78 | 103 | 0.0 | 0.0 | 0.00 | 0.00 | 0.00 | ||
| 20260904045106 | 78 | 103 | 0.0 | 0.0 | 0.00 | 0.00 | 0.00 | ||
| 20260904044607 | 78 | 103 | 0.0 | 0.0 | 0.00 | 0.00 | 0.00 | ||
| 20260904044103 | 78 | 103 | 0.0 | 0.0 | 0.00 | 0.00 | 0.00 | ||
| 20260904043604 | 78 | 103 | 0.0 | 0.0 | 0.00 | 0.00 | 0.00 | ||
| 20260904043102 | 78 | 103 | 0.0 | 0.0 | 0.00 | 0.00 | 0.00 | ||
| 20260904042602 | 79 | 103 | 0.0 | 0.0 | 0.00 | 0.00 | 0.00 | ||
| 20260904042101 | 79 | 103 | 0.0 | 0.0 | 0.00 | 0.00 | 0.00 | ||
| 20260904041601 | 78 | 103 | 0.0 | 0.0 | 0.00 | 0.00 | 0.00 | ||
| 20260904041059 | 79 | 103 | 0.0 | 0.0 | 0.00 | 0.00 | 0.00 | ||
| 20260904040600 | 79 | 103 | 0.0 | 0.0 | 0.00 | 0.00 | 0.00 | ||
| 20260904040058 | 80 | 103 | 0.0 | 0.0 | 0.00 | 0.00 | 0.00 | ||
| 20260904035559 | 79 | 103 | 0.0 | 0.0 | 0.00 | 0.00 | 0.00 | ||
| 20260904035057 | 79 | 103 | 0.0 | 0.0 | 0.00 | 0.00 | 0.00 | ||
| 20260904034557 | 79 | 103 | 0.0 | 0.0 | 0.00 | 0.00 | 0.00 | ||
| 20260904033556 | 79 | 103 | 0.0 | 0.0 | 0.00 | 0.00 | 0.00 | ||
| 20260904032051 | 79 | 103 | 0.0 | 0.0 | 0.00 | 0.00 | 0.00 | ||
| 20260904031552 | 79 | 103 | 0.0 | 0.0 | 0.00 | 0.00 | 0.00 | ||
| 20260904031049 | 79 | 103 | 0.0 | 0.0 | 0.00 | 0.00 | 0.00 | ||
| 20260904030550 | 79 | 103 | 0.0 | 0.0 | 0.00 | 0.00 | 0.00 | ||
| 20260904030048 | 80 | 103 | 0.0 | 0.0 | 0.00 | 0.00 | 0.00 | ||
| 20260904025045 | 79 | 103 | 0.0 | 0.0 | 0.00 | 0.00 | 0.00 | ||
| 20260904024546 | 80 | 103 | 0.0 | 0.0 | 0.00 | 0.00 | 0.00 | ||
| 20260904024044 | 80 | 103 | 0.0 | 0.0 | 0.00 | 0.00 | 0.00 | ||
| 20260904023545 | 79 | 103 | 0.0 | 0.0 | 0.00 | 0.00 | 0.00 | ||
| 20260904023042 | 79 | 103 | 0.0 | 0.0 | 0.00 | 0.00 | 0.00 | ||
| 20260904022543 | 80 | 103 | 0.0 | 0.0 | 0.00 | 0.00 | 0.00 | ||
| 20260904022041 | 80 | 103 | 0.0 | 0.0 | 0.00 | 0.00 | 0.00 | ||
| 20260904021539 | 80 | 103 | 0.0 | 0.0 | 0.00 | 0.00 | 0.00 | ||
| 20260904021038 | 80 | 103 | 0.0 | 0.0 | 0.00 | 0.00 | 0.00 | ||
| 20260904020539 | 80 | 103 | 0.0 | 0.0 | 0.00 | 0.00 | 0.00 | ||
| 20260904020035 | 80 | 103 | 0.0 | 0.0 | 0.00 | 0.00 | 0.00 | ||
| 20260904015535 | 80 | 103 | 0.0 | 0.0 | 0.00 | 0.00 | 0.00 | ||
| 20260904015034 | 80 | 103 | 0.0 | 0.0 | 0.00 | 0.00 | 0.00 | ||
| 20260904014534 | 80 | 103 | 0.0 | 0.0 | 0.00 | 0.00 | 0.00 | ||
| 20260904013529 | 80 | 103 | 0.0 | 0.0 | 0.00 | 0.00 | 0.00 | ||
| 20260904013027 | 81 | 103 | 0.0 | 0.0 | 0.00 | 0.00 | 0.00 | ||
| 20260904012024 | 80 | 103 | 0.0 | 0.0 | 0.00 | 0.00 | 0.00 | ||
| 20260904011021 | 80 | 103 | 0.0 | 0.0 | 0.00 | 0.00 | 0.00 | ||
| 20260904010522 | 81 | 103 | 0.0 | 0.0 | 0.00 | 0.00 | 0.00 | ||
| 20260904010019 | 81 | 103 | 0.0 | 0.0 | 0.00 | 0.00 | 0.00 | ||
| 20260904005519 | 81 | 103 | 0.0 | 0.0 | 0.00 | 0.00 | 0.00 | ||
| 20260904005016 | 80 | 103 | 0.0 | 0.0 | 0.00 | 0.00 | 0.00 | ||
| 20260904004517 | 81 | 103 | 0.0 | 0.0 | 0.00 | 0.00 | 0.00 | ||
| 20260904004015 | 82 | 103 | 0.0 | 0.0 | 0.00 | 0.00 | 0.00 | ||
| 20260904003516 | 82 | 103 | 0.0 | 0.0 | 0.00 | 0.00 | 0.00 | ||
| 20260904003013 | 82 | 103 | 0.0 | 0.0 | 0.00 | 0.00 | 0.00 | ||
| 20260904002514 | 82 | 103 | 0.0 | 0.0 | 0.00 | 0.00 | 0.00 | ||
| 20260904002013 | 83 | 103 | 0.0 | 0.0 | 0.00 | 0.00 | 0.00 | ||
| 20260904001513 | 82 | 103 | 0.0 | 0.0 | 0.00 | 0.00 | 0.00 | ||
| 20260904001011 | 82 | 103 | 0.0 | 0.0 | 0.00 | 0.00 | 0.00 | ||
| 20260904000512 | 83 | 103 | 0.0 | 0.0 | 0.00 | 0.00 | 0.00 | ||
| 20260904000010 | 83 | 103 | 0.0 | 0.0 | 0.00 | 0.00 | 0.00 | ||
| 20260903235007 | 83 | 152 | 0.9 | 1.7 | 0.00 | 0.00 | 0.00 | ||
| 20260903234508 | 83 | 103 | 0.9 | 0.9 | 0.00 | 0.00 | 0.00 | ||
| 20260903234006 | 83 | 146 | 1.7 | 1.7 | 0.00 | 0.00 | 0.00 | ||
| 20260903233507 | 84 | 129 | 1.7 | 1.7 | 0.00 | 0.00 | 0.00 | ||
| 20260903233006 | 83 | 124 | 2.6 | 1.7 | 0.00 | 0.00 | 0.00 |